Date,TemperatureHighF,TemperatureAvgF,TemperatureLowF,DewpointHighF,DewpointAvgF,DewpointLowF,HumidityHigh,HumidityAvg,HumidityLow,PressureMaxIn,PressureMinIn,WindSpeedMaxMPH,WindSpeedAvgMPH,GustSpeedMaxMPH,PrecipitationSumIn
2013-5-3,67.0,62.1,52.8,53.8,50.9,43.0,82,67,57,30.28,30.16,14,2,14,0.00
2013-5-4,61.1,53.3,47.8,51.8,47.2,43.1,96,80,61,30.21,30.08,16,2,16,0.00
2013-5-5,54.9,52.1,48.8,54.0,48.8,44.6,97,89,75,30.11,29.97,13,1,13,0.24
2013-5-6,67.3,58.4,54.3,63.5,57.2,53.6,99,96,85,29.99,29.82,14,1,14,1.77
2013-5-7,70.3,58.8,51.9,59.4,55.0,50.3,99,89,54,29.95,29.84,13,0,13,0.55
2013-5-8,68.4,57.9,50.6,60.9,55.4,50.3,99,92,72,30.01,29.92,5,0,8,0.42
2013-5-9,81.3,63.6,45.5,66.3,55.9,45.1,100,80,44,30.08,29.99,10,1,10,0.00
2013-5-10,83.2,69.1,52.4,65.4,59.9,52.1,99,76,46,30.06,29.90,12,1,12,0.00
2013-5-11,78.8,69.9,61.3,63.9,62.3,60.5,98,78,56,29.93,29.76,13,1,13,0.94
2013-5-12,69.0,60.2,43.4,60.7,47.8,34.3,98,68,30,30.04,29.80,14,2,14,0.01
2013-5-13,66.2,51.6,36.1,46.3,37.1,30.0,99,64,26,30.20,30.04,13,1,13,0.00
2013-5-14,71.5,55.1,35.0,47.2,41.1,34.1,98,64,31,30.28,30.06,11,1,11,0.00
2013-5-15,88.7,71.0,50.1,66.8,57.5,45.8,87,64,44,30.06,29.88,11,1,11,0.00
2013-5-16,83.2,70.6,56.4,67.8,61.2,55.8,99,75,46,29.98,29.89,11,1,11,0.00
2013-5-17,86.4,72.3,56.3,67.3,62.3,55.7,99,74,46,30.07,29.97,9,0,9,0.00
2013-5-18,73.3,66.5,59.8,68.5,64.3,59.2,99,93,81,30.15,30.06,5,0,5,0.14
2013-5-19,76.4,68.9,64.3,70.2,66.0,62.5,98,91,78,30.12,30.02,10,1,10,0.03
2013-5-20,82.0,70.6,65.0,70.6,67.3,64.7,99,90,66,30.09,30.00,9,1,9,0.42
2013-5-21,89.0,75.0,63.7,74.1,69.4,63.4,100,85,54,30.04,29.90,10,1,10,0.00
2013-5-22,85.1,74.5,65.4,71.9,67.6,63.9,97,80,61,29.99,29.85,13,1,13,0.18
2013-5-23,79.7,69.1,62.4,70.2,65.7,61.5,99,90,69,29.93,29.79,10,1,10,0.22
2013-5-24,69.3,62.8,49.8,61.9,50.2,36.8,99,67,35,30.19,29.83,16,1,16,0.00
2013-5-25,76.0,57.7,38.1,47.4,40.7,33.7,98,60,26,30.30,30.14,13,1,13,0.00
2013-5-26,77.5,61.4,48.3,57.6,49.0,42.6,90,67,39,30.28,30.15,10,1,10,0.00
2013-5-27,73.5,66.0,59.9,59.9,58.1,57.1,91,77,58,30.18,30.13,0,0,0,0.00
2013-5-28,85.1,73.2,59.7,68.3,64.1,57.1,94,75,52,30.21,30.11,4,1,9,0.00
2013-5-29,86.5,74.2,59.8,69.9,64.5,58.6,98,74,50,30.21,30.12,3,1,9,0.00
2013-5-30,87.5,73.9,62.6,68.6,64.6,61.0,98,75,42,30.25,30.15,4,1,10,0.00
2013-5-31,86.6,74.5,61.3,70.9,66.4,60.2,98,78,53,30.20,30.08,3,1,7,0.00